TimePDT,TemperatureF,Dew PointF,Humidity,Sea Level PressureIn,VisibilityMPH,Wind Direction,Wind SpeedMPH,Gust SpeedMPH,PrecipitationIn,Events,Conditions,WindDirDegrees,DateUTC
12:55 AM,60.1,55.9,86,29.94,9.0,SSW,3.5,-,N/A,,Overcast,210,2013-07-28 07:55:00
1:55 AM,60.1,55.9,86,29.94,10.0,Calm,Calm,-,N/A,,Overcast,0,2013-07-28 08:55:00
2:55 AM,60.1,55.9,86,29.92,10.0,Calm,Calm,-,N/A,,Overcast,0,2013-07-28 09:55:00
3:55 AM,60.1,55.0,83,29.91,10.0,Calm,Calm,-,N/A,,Overcast,0,2013-07-28 10:55:00
4:55 AM,59.0,55.9,90,29.91,9.0,Calm,Calm,-,N/A,,Overcast,0,2013-07-28 11:55:00
5:55 AM,59.0,55.9,90,29.92,9.0,West,3.5,-,N/A,,Overcast,260,2013-07-28 12:55:00
6:55 AM,60.1,55.9,86,29.94,7.0,Calm,Calm,-,N/A,,Overcast,0,2013-07-28 13:55:00
7:55 AM,60.1,55.9,86,29.95,7.0,Calm,Calm,-,N/A,,Overcast,0,2013-07-28 14:55:00
8:55 AM,63.0,57.0,81,29.96,7.0,Calm,Calm,-,N/A,,Overcast,0,2013-07-28 15:55:00
9:55 AM,64.9,57.9,78,29.95,6.0,Calm,Calm,-,N/A,,Haze,0,2013-07-28 16:55:00
10:55 AM,68.0,57.9,70,29.95,9.0,SSW,5.8,-,N/A,,Overcast,200,2013-07-28 17:55:00
11:55 AM,68.0,59.0,73,29.95,10.0,SW,9.2,-,N/A,,Mostly Cloudy,220,2013-07-28 18:55:00
12:55 PM,66.9,57.9,73,29.95,10.0,SW,11.5,-,N/A,,Overcast,220,2013-07-28 19:55:00
1:55 PM,66.0,57.9,75,29.94,10.0,SW,9.2,-,N/A,,Overcast,230,2013-07-28 20:55:00
2:55 PM,66.0,57.9,75,29.93,10.0,WSW,9.2,-,N/A,,Overcast,240,2013-07-28 21:55:00
3:55 PM,68.0,57.9,70,29.91,10.0,WSW,9.2,-,N/A,,Overcast,250,2013-07-28 22:55:00
4:55 PM,66.0,57.9,75,29.91,10.0,SW,6.9,-,N/A,,Overcast,230,2013-07-28 23:55:00
5:55 PM,66.0,57.9,75,29.91,10.0,WSW,5.8,-,N/A,,Mostly Cloudy,240,2013-07-29 00:55:00
6:55 PM,64.0,57.0,78,29.91,10.0,SW,6.9,-,N/A,,Overcast,220,2013-07-29 01:55:00
7:55 PM,63.0,57.0,81,29.92,10.0,South,4.6,-,N/A,,Overcast,190,2013-07-29 02:55:00
8:55 PM,63.0,57.0,81,29.93,10.0,West,4.6,-,N/A,,Overcast,270,2013-07-29 03:55:00
9:55 PM,62.1,57.0,84,29.94,10.0,West,4.6,-,N/A,,Overcast,270,2013-07-29 04:55:00
10:47 PM,62.6,57.2,82,29.92,10.0,West,3.5,-,N/A,,Overcast,270,2013-07-29 05:47:00
10:55 PM,62.1,57.0,84,29.95,10.0,Calm,Calm,-,N/A,,Overcast,0,2013-07-29 05:55:00
11:55 PM,62.1,57.0,84,29.94,10.0,Calm,Calm,-,N/A,,Overcast,0,2013-07-29 06:55:00